Location: Perryvale
(54.4667°N, 113.3833°W)
Time: 22:38:39
(UTC+00:00)

Vanguard 1 - Pass Details

Date: 29 May 2024
Orbit: 652 x 3825 km, 34.2° (Epoch: 13 June)

Event Time Altitude Azimuth Distance (km) Brightness Sun altitude
Rises 07:59:39 0° 262° (W) 5,495 13.7 -13.6°
Reaches altitude 10° 08:04:29 10° 245° (WSW) 5,024 13.4 -13.5°
Maximum altitude 08:13:30 19° 208° (SSW) 5,152 13.1 -13.3°
Enters shadow 08:21:35 14° 182° (S) 6,078 13.4 -13.0°
Drops below altitude 10° 08:25:05 10° 174° (S) 6,595 - -12.9°
Exits shadow 08:29:07 - 166° (SSE) 7,225 13.9 -12.8°
Sets 08:33:20 0° 160° (SSE) 7,896 14.2 -12.6°
